Terug naar catalogus

BREEZE-M R/B

ActiefHEO
NORAD 28869·ROCKET BODY·🇷🇺 Russia

Gelanceerd Sep 8, 2005 vanaf Baikonur Cosmodrome

Loading…

Volgende Passages (komende 24 uur)

TLE

VersSource: Space-Track

Epoch: Sep 9, 2026, 06:34 UTC

1 28869U 05036B   26252.27415056 -.00000265  00000-0  00000-0 0  9998
2 28869   9.1434 159.7876 6281911 236.2214  47.9621  2.10741236161662

Volg BREEZE-M R/B in realtime met AllMySat

Download on the App Store